This is the latest recevied weather packets stored in our database for station/object KE8URB. If no packets are shown the sender has not sent any weather packets the latest 10 day(s).
| Time | Temp. | Humidity | Pressure | Rain* | Wind** | Luminosity | Snow |
|---|---|---|---|---|---|---|---|
| 1787833525 | 19.44° C | 95% | 1015.2 hPa | 0 mm | - | 35 W/m² | - |
| 1787833221 | 18.89° C | 95% | 1015.4 hPa | 0 mm | - | 27 W/m² | - |
| 1787832916 | 18.89° C | 95% | 1015.6 hPa | 0 mm | - | 21 W/m² | - |
| 1787832612 | 18.89° C | 96% | 1015.4 hPa | 0 mm | - | 13 W/m² | - |
| 1787832311 | 18.89° C | 96% | 1015.3 hPa | 0 mm | - | 10 W/m² | - |
| 1787832010 | 18.89° C | 96% | 1015.3 hPa | 0 mm | - | 14 W/m² | - |
| 1787831704 | 18.89° C | 96% | 1015.1 hPa | 0 mm | - | 17 W/m² | - |
| 1787831403 | 18.89° C | 96% | 1015 hPa | 0 mm | - | 20 W/m² | - |
| 1787831101 | 18.89° C | 96% | 1014.9 hPa | 0 mm | - | 17 W/m² | - |
| 1787830799 | 18.89° C | 96% | 1015 hPa | 0 mm | - | 16 W/m² | - |
| 1787830498 | 18.89° C | 96% | 1015 hPa | 0 mm | - | 12 W/m² | - |
| 1787830197 | 18.89° C | 96% | 1014.7 hPa | 0 mm | - | 7 W/m² | - |
| 1787829892 | 18.33° C | 96% | 1014.8 hPa | 0 mm | - | 6 W/m² | - |
| 1787829591 | 18.33° C | 96% | 1014.8 hPa | 0 mm | - | 5 W/m² | - |
| 1787829288 | 18.33° C | 96% | 1014.7 hPa | 0 mm | - | 3 W/m² | - |
| 1787828982 | 18.33° C | 96% | 1014.6 hPa | 0 mm | - | 2 W/m² | - |
| 1787828679 | 18.33° C | 96% | 1014.6 hPa | 0 mm | - | 0 W/m² | - |
| 1787828374 | 18.33° C | 96% | 1014.5 hPa | 0 mm | - | 0 W/m² | - |
| 1787828073 | 18.33° C | 96% | 1014.7 hPa | 0 mm | - | 0 W/m² | - |
| 1787827772 | 18.33° C | 96% | 1014.1 hPa | 0 mm | - | 0 W/m² | - |
| 1787827469 | 18.33° C | 96% | 1014.6 hPa | 0 mm | - | 0 W/m² | - |
| 1787827168 | 18.33° C | 96% | 1014.5 hPa | 0 mm | - | 0 W/m² | - |
| 1787826867 | 18.33° C | 96% | 1014.4 hPa | 0 mm | - | 0 W/m² | - |
| 1787826563 | 18.33° C | 97% | 1014.1 hPa | 0 mm | - | 0 W/m² | - |
| 1787826258 | 18.33° C | 97% | 1014.2 hPa | 0 mm | - | 0 W/m² | - |
* Rain latest hour (hover to see other rain measurements)
** Current wind speed in m/s (hover to see current wind gust speed)